Theta_e
285 285 286 286 284 284 285 285 284 284 285 284 283 284 283 283 281 281 280 280 279 279 279 278 278 278 278 277 277 276 276 277
286 285 285 285 284 284 284 283 283 284 283 283 283 283 282 282 281 280 280 279 279 279 278 278 277 277 276 276 276 276 276 276
286 285 285 284 283 283 284 283 283 283 283 282 282 282 281 281 280 279 279 279 278 278 278 277 277 277 276 276 276 275 276 276
286 285 284 284 284 284 283 283 283 283 282 281 281 281 280 280 279 279 278 278 277 277 277 277 276 276 276 276 276 276 276 276
286 285 285 284 284 283 283 283 283 282 282 281 280 280 280 279 279 278 278 277 277 276 276 276 276 276 276 276 276 276 276 276
287 286 285 284 284 284 283 283 283 282 282 281 281 280 279 279 279 278 278 277 276 276 276 275 275 276 275 275 275 275 275 275
288 287 285 285 284 284 284 283 283 282 282 282 281 281 280 280 279 278 277 277 276 275 274 274 276 279 280 277 275 276 275 274
288 287 286 285 285 284 284 284 283 282 282 282 282 281 280 280 279 277 277 275 274 274 274 273 274 280 280 280 276 275 274 274
290 289 287 286 285 286 284 283 283 282 282 282 282 281 279 278 278 277 276 274 274 273 273 273 273 279 280 280 276 274 274 274
291 290 289 286 285 285 283 283 282 282 281 281 282 281 279 278 277 276 275 273 273 272 271 271 271 279 280 279 274 274 273 274
290 289 289 288 286 284 283 281 281 282 282 282 282 281 279 279 276 273 274 274 273 273 271 271 269 277 279 279 274 269 272 272
289 290 289 286 285 283 281 281 282 281 281 280 280 280 279 277 274 271 272 272 270 271 271 269 270 269 278 279 275 272 269 270
285 284 282 283 284 281 281 281 279 278 278 277 277 277 275 274 269 270 271 271 270 268 267 268 269 272 275 278 279 278 270 269
283 281 280 278 282 280 278 277 276 275 274 273 271 273 272 271 270 269 270 270 269 268 268 267 269 269 275 277 278 278 276 274
278 277 275 273 275 274 275 274 273 272 269 269 271 269 268 272 271 270 269 268 267 266 266 263 266 268 268 270 270 274 275 275
276 274 274 272 270 269 271 272 271 270 269 269 268 268 267 267 266 268 265 268 262 261 262 261 262 266 271 268 264 264 269 269
271 272 269 270 268 268 270 272 272 270 269 268 267 265 266 265 264 273 273 275 276 276 268 265 272 275 276 277 277 278 278 273
273 272 272 270 266 262 264 268 268 268 267 266 266 265 264 263 263 262 266 276 278 278 278 278 278 278 278 279 279 279 278 274
271 268 268 265 261 259 259 262 261 262 266 266 265 265 263 262 261 261 260 260 262 269 270 272 273 274 275 275 275 270 270 266
266 264 263 261 257 257 260 264 263 264 263 262 261 261 261 261 260 259 259 260 258 255 262 263 268 269 270 270 257 256 259 261
Wind_Speed
15 14 12 12 9 10 10 12 11 10 10 10 10 9 9 9 9 8 6 6 7 7 6 6 6 6 7 5 4 5 2 2
13 13 12 11 11 12 11 11 11 10 7 10 9 9 9 9 8 8 7 7 7 6 7 7 6 6 6 6 5 5 3 2
13 14 14 14 12 13 12 12 11 10 9 9 9 9 9 9 9 8 8 6 7 6 6 6 6 6 6 5 4 4 2 1
14 16 16 15 14 14 13 13 11 11 11 9 10 10 9 9 9 8 8 8 7 6 7 6 6 6 4 5 4 3 3 3
15 16 15 15 15 13 13 12 12 12 12 12 12 11 10 9 9 9 8 8 7 7 7 6 6 6 5 5 3 3 3 4
19 17 16 15 14 13 13 13 12 12 12 12 10 8 8 9 8 7 7 7 7 7 6 6 5 4 5 5 4 4 5 5
15 15 16 16 16 14 14 14 13 13 12 10 10 10 10 10 9 9 8 7 7 7 7 6 4 10 10 7 4 4 4 5
17 15 15 16 15 16 14 12 13 12 10 11 11 12 11 10 10 10 10 6 7 7 7 7 6 11 12 12 5 5 6 6
16 14 13 13 14 13 13 15 15 12 11 11 13 12 9 11 11 9 7 9 7 7 7 6 6 13 14 14 5 5 7 7
13 14 14 16 15 15 13 13 13 14 13 13 12 12 12 12 12 9 8 6 7 4 7 7 6 14 14 12 5 7 8 7
11 10 15 14 15 15 14 13 14 13 14 12 13 13 14 13 11 5 5 8 6 7 8 8 7 15 15 12 3 5 6 5
11 13 10 11 13 14 12 14 13 8 9 10 11 12 11 9 6 6 6 5 7 8 6 7 7 8 16 16 7 6 5 6
10 8 7 11 12 10 12 8 8 9 9 9 9 7 7 9 5 5 7 8 7 5 4 3 4 10 15 18 19 15 7 7
11 10 6 6 8 10 6 8 8 8 7 7 6 6 7 8 8 5 6 7 7 6 6 3 4 5 17 19 18 19 12 6
9 8 5 3 4 4 6 6 7 6 5 5 7 6 5 4 6 6 7 6 4 5 5 2 3 4 4 5 5 11 11 12
8 7 6 4 4 3 5 7 6 6 5 5 4 5 4 2 4 3 1 5 4 3 4 4 4 5 9 8 4 5 10 9
4 7 4 5 4 3 4 7 8 6 5 5 5 4 4 4 1 5 7 10 12 11 8 4 10 10 12 15 19 20 20 10
6 6 7 6 6 2 2 5 6 6 6 5 5 4 4 3 4 4 3 7 10 11 10 10 10 12 14 17 19 21 19 10
7 6 7 7 4 3 2 5 5 4 6 5 5 4 4 4 3 3 4 3 1 4 4 7 10 13 15 16 17 9 8 5
7 6 6 6 1 3 2 5 6 5 4 4 4 4 5 4 4 3 3 2 1 3 4 5 10 11 12 14 2 2 6 7
Wind_Direction
170 170 172 175 168 164 162 160 153 145 149 150 149 145 140 133 137 141 140 132 139 140 133 125 121 118 112 108 107 105 80 100
174 169 166 167 173 169 162 154 154 153 144 145 148 141 135 138 144 149 137 144 150 147 144 142 127 120 113 118 126 112 122 74
169 164 170 177 173 173 168 163 164 158 150 149 145 144 147 153 154 148 147 152 158 157 146 137 132 125 131 144 138 148 152 214
172 177 180 180 180 176 174 169 163 158 155 154 157 157 163 161 156 153 149 157 164 160 148 148 143 138 148 164 174 174 207 231
183 187 184 182 179 177 177 171 166 162 163 167 169 168 167 160 163 161 161 158 169 164 152 159 151 152 170 183 188 215 232 246
189 187 181 179 179 179 176 171 170 168 174 179 169 160 157 164 169 159 161 173 172 152 157 167 161 169 185 189 197 223 246 252
189 184 185 181 182 177 177 175 170 180 181 170 167 168 174 171 169 168 170 174 171 161 170 177 182 195 201 185 199 222 241 257
186 180 183 186 177 182 175 164 175 179 173 174 173 178 183 172 173 179 181 169 176 171 179 192 195 205 211 214 201 216 231 241
178 175 170 164 169 167 167 173 182 181 176 177 179 184 169 174 184 180 172 187 175 190 193 192 206 213 218 222 206 226 238 243
170 164 159 165 167 168 171 176 180 183 182 182 183 176 178 188 187 187 178 181 188 176 191 201 207 218 222 222 195 226 239 243
161 155 162 170 162 163 173 173 182 183 188 177 180 184 185 190 185 173 181 194 188 202 199 203 207 219 226 230 193 226 241 245
152 159 155 139 151 165 164 185 188 162 158 169 176 183 187 177 162 166 176 167 194 208 201 206 198 216 231 235 225 228 231 230
124 126 132 145 147 149 178 171 141 145 160 172 174 174 162 171 163 163 170 193 203 204 225 217 193 207 235 239 242 240 221 223
131 128 114 121 139 161 175 145 147 152 170 169 149 160 160 165 172 163 178 194 205 209 227 217 199 218 243 242 246 252 252 240
111 116 130 137 116 109 145 137 140 151 145 144 165 160 156 157 167 177 185 195 191 198 225 192 198 220 219 239 257 270 262 267
135 141 159 130 125 134 135 136 139 132 139 141 133 160 146 120 163 167 162 171 165 195 177 188 233 232 231 224 230 235 243 251
99 116 139 132 130 147 145 148 144 147 158 165 157 153 149 145 89 227 205 218 223 217 190 220 227 245 253 261 265 267 247 236
148 133 127 111 100 41 144 139 155 153 152 152 149 150 157 156 162 180 307 246 231 231 245 265 267 273 275 285 290 289 285 270
113 107 113 112 104 324 120 116 129 135 143 151 154 155 150 149 151 147 154 164 312 13 336 309 297 295 294 296 297 298 288 279
99 105 114 117 121 324 115 118 122 120 118 112 112 119 128 126 128 126 117 118 160 345 328 335 316 314 309 311 25 267 293 300